| time (UTC) | temp F | wind direction | speed MPH | gust MPH | rain 1hr in | rain 24hr in | rain mn in | humidity % | barometer mb |
| 20260507061713 | 60 | 180 | 2.0 | 3.0 | 0.00 | 0.00 | 0.00 | 26 | 1009.2 |
| 20260507061110 | 60 | 180 | 4.0 | 6.0 | 0.00 | 0.00 | 0.00 | 24 | 1009.4 |
| 20260507060506 | 59 | 180 | 3.0 | 5.0 | 0.00 | 0.00 | 0.00 | 26 | 1009.2 |
| 20260507055903 | 59 | 225 | 5.0 | 6.0 | 0.00 | 0.00 | 0.00 | 26 | 1009.2 |
| 20260507055359 | 59 | 180 | 6.0 | 6.0 | 0.00 | 0.00 | 0.00 | 28 | 1009.1 |
| 20260507054854 | 59 | 180 | 4.0 | 7.0 | 0.00 | 0.00 | 0.00 | 30 | 1009.1 |
| 20260507054349 | 58 | 180 | 3.0 | 5.0 | 0.00 | 0.00 | 0.00 | 30 | 1009.1 |
| 20260507053844 | 58 | 202 | 2.0 | 4.0 | 0.00 | 0.00 | 0.00 | 30 | 1009.1 |
| 20260507053340 | 58 | 0.0 | 0.0 | 0.00 | 0.00 | 0.00 | 30 | 1008.8 | |
| 20260507052836 | 58 | 180 | 3.0 | 4.0 | 0.00 | 0.00 | 0.00 | 30 | 1009.0 |
| 20260507052331 | 58 | 180 | 3.0 | 4.0 | 0.00 | 0.00 | 0.00 | 30 | 1008.8 |
| 20260507051827 | 57 | 0.0 | 0.0 | 0.00 | 0.00 | 0.00 | 30 | 1008.9 | |
| 20260507051322 | 57 | 225 | 5.0 | 6.0 | 0.00 | 0.00 | 0.00 | 30 | 1008.7 |
| 20260507050818 | 57 | 225 | 4.0 | 6.0 | 0.00 | 0.00 | 0.00 | 30 | 1008.8 |
| 20260507050314 | 57 | 202 | 5.0 | 6.0 | 0.00 | 0.00 | 0.00 | 30 | 1008.9 |
| 20260507045710 | 56 | 180 | 1.0 | 2.0 | 0.00 | 0.00 | 0.00 | 30 | 1008.7 |
| 20260507045106 | 56 | 0.0 | 0.0 | 0.00 | 0.00 | 0.00 | 30 | 1008.8 | |
| 20260507044503 | 56 | 0.0 | 0.0 | 0.00 | 0.00 | 0.00 | 30 | 1008.8 | |
| 20260507044100 | 56 | 0.0 | 0.0 | 0.00 | 0.00 | 0.00 | 30 | 1008.6 | |
| 20260507043556 | 56 | 0.0 | 0.0 | 0.00 | 0.00 | 0.00 | 30 | 1008.6 | |
| 20260507043052 | 56 | 0.0 | 0.0 | 0.00 | 0.00 | 0.00 | 30 | 1008.6 | |
| 20260507042547 | 55 | 0.0 | 0.0 | 0.00 | 0.00 | 0.00 | 30 | 1008.4 | |
| 20260507042042 | 55 | 225 | 2.0 | 3.0 | 0.00 | 0.00 | 0.00 | 31 | 1008.6 |
| 20260507041538 | 55 | 0.0 | 0.0 | 0.00 | 0.00 | 0.00 | 31 | 1008.5 | |
| 20260507041053 | 55 | 0.0 | 0.0 | 0.00 | 0.00 | 0.00 | 31 | 1008.6 | |
| 20260507040548 | 54 | 0.0 | 0.0 | 0.00 | 0.00 | 0.00 | 32 | 1008.4 | |
| 20260507040022 | 54 | 0.0 | 0.0 | 0.00 | 0.00 | 0.00 | 32 | 1008.4 | |
| 20260507035518 | 54 | 0.0 | 0.0 | 0.00 | 0.00 | 0.00 | 32 | 1008.4 | |
| 20260507035014 | 54 | 0.0 | 1.0 | 0.00 | 0.00 | 0.00 | 33 | 1008.2 | |
| 20260507034410 | 53 | 180 | 0.0 | 2.0 | 0.00 | 0.00 | 0.00 | 40 | 1008.3 |
| 20260507033807 | 53 | 0.0 | 0.0 | 0.00 | 0.00 | 0.00 | 40 | 1008.3 | |
| 20260507033203 | 52 | 0.0 | 0.0 | 0.00 | 0.00 | 0.00 | 40 | 1008.2 | |
| 20260507032659 | 52 | 0.0 | 0.0 | 0.00 | 0.00 | 0.00 | 39 | 1008.3 | |
| 20260507032215 | 53 | 0.0 | 0.0 | 0.00 | 0.00 | 0.00 | 39 | 1008.1 | |
| 20260507031730 | 53 | 0.0 | 0.0 | 0.00 | 0.00 | 0.00 | 38 | 1008.0 | |
| 20260507031145 | 53 | 0.0 | 0.0 | 0.00 | 0.00 | 0.00 | 36 | 1008.1 | |
| 20260507030641 | 53 | 0.0 | 0.0 | 0.00 | 0.00 | 0.00 | 35 | 1008.1 | |
| 20260507030136 | 54 | 0.0 | 0.0 | 0.00 | 0.00 | 0.00 | 34 | 1008.0 | |
| 20260507025632 | 54 | 0.0 | 0.0 | 0.00 | 0.00 | 0.00 | 32 | 1008.1 | |
| 20260507025127 | 54 | 0.0 | 0.0 | 0.00 | 0.00 | 0.00 | 32 | 1008.0 | |
| 20260507024622 | 55 | 0.0 | 0.0 | 0.00 | 0.00 | 0.00 | 32 | 1007.6 | |
| 20260507024118 | 55 | 0.0 | 0.0 | 0.00 | 0.00 | 0.00 | 33 | 1008.0 | |
| 20260507023614 | 54 | 0.0 | 0.0 | 0.00 | 0.00 | 0.00 | 37 | 1007.9 | |
| 20260507023010 | 54 | 0.0 | 0.0 | 0.00 | 0.00 | 0.00 | 36 | 1008.0 | |
| 20260507022407 | 54 | 0.0 | 0.0 | 0.00 | 0.00 | 0.00 | 37 | 1007.9 | |
| 20260507021803 | 53 | 0.0 | 0.0 | 0.00 | 0.00 | 0.00 | 38 | 1007.9 | |
| 20260507021259 | 53 | 0.0 | 0.0 | 0.00 | 0.00 | 0.00 | 38 | 1007.9 | |
| 20260507020755 | 53 | 0.0 | 0.0 | 0.00 | 0.00 | 0.00 | 37 | 1007.7 | |
| 20260507020411 | 54 | 0.0 | 0.0 | 0.00 | 0.00 | 0.00 | 35 | 1007.5 | |
| 20260507015745 | 54 | 0.0 | 0.0 | 0.00 | 0.00 | 0.00 | 34 | 1007.6 | |
| 20260507015241 | 54 | 0.0 | 0.0 | 0.00 | 0.00 | 0.00 | 31 | 1007.7 | |
| 20260507014736 | 54 | 0.0 | 0.0 | 0.00 | 0.00 | 0.00 | 31 | 1007.7 | |
| 20260507014252 | 54 | 0.0 | 0.0 | 0.00 | 0.00 | 0.00 | 31 | 1007.9 | |
| 20260507013757 | 55 | 0.0 | 0.0 | 0.00 | 0.00 | 0.00 | 30 | 1008.0 | |
| 20260507013252 | 55 | 0.0 | 0.0 | 0.00 | 0.00 | 0.00 | 30 | 1008.0 | |
| 20260507012748 | 55 | 0.0 | 0.0 | 0.00 | 0.00 | 0.00 | 30 | 1007.9 | |
| 20260507012243 | 56 | 0.0 | 0.0 | 0.00 | 0.00 | 0.00 | 30 | 1008.0 | |
| 20260507011739 | 57 | 0.0 | 0.0 | 0.00 | 0.00 | 0.00 | 28 | 1008.0 | |
| 20260507011234 | 57 | 0.0 | 0.0 | 0.00 | 0.00 | 0.00 | 28 | 1007.9 | |
| 20260507010729 | 57 | 0.0 | 0.0 | 0.00 | 0.00 | 0.00 | 28 | 1007.9 | |
| 20260507010225 | 57 | 180 | 4.0 | 6.0 | 0.00 | 0.00 | 0.00 | 28 | 1007.9 |
| 20260507005720 | 57 | 0.0 | 0.0 | 0.00 | 0.00 | 0.00 | 28 | 1007.9 | |
| 20260507005235 | 57 | 180 | 1.0 | 3.0 | 0.00 | 0.00 | 0.00 | 28 | 1008.3 |
| 20260507004612 | 57 | 0.0 | 1.0 | 0.00 | 0.00 | 0.00 | 30 | 1008.2 | |
| 20260507004008 | 57 | 0.0 | 0.0 | 0.00 | 0.00 | 0.00 | 30 | 1008.3 | |
| 20260507003424 | 56 | 0.0 | 0.0 | 0.00 | 0.00 | 0.00 | 31 | 1008.2 | |
| 20260507002901 | 56 | 0.0 | 0.0 | 0.00 | 0.00 | 0.00 | 31 | 1008.1 | |
| 20260507002356 | 56 | 0.0 | 0.0 | 0.00 | 0.00 | 0.00 | 32 | 1008.2 | |
| 20260507001852 | 55 | 0.0 | 0.0 | 0.00 | 0.00 | 0.00 | 33 | 1008.1 | |
| 20260507001347 | 55 | 0.0 | 0.0 | 0.00 | 0.00 | 0.00 | 34 | 1008.2 | |
| 20260507000843 | 55 | 0.0 | 0.0 | 0.00 | 0.00 | 0.00 | 34 | 1008.1 | |
| 20260507000338 | 56 | 0.0 | 0.0 | 0.00 | 0.00 | 0.00 | 34 | 1008.2 | |
| 20260506235834 | 56 | 0.0 | 0.0 | 0.00 | 0.00 | 0.00 | 34 | 1008.2 | |
| 20260506235330 | 56 | 0.0 | 0.0 | 0.00 | 0.00 | 0.00 | 33 | 1008.1 | |
| 20260506234826 | 56 | 0.0 | 0.0 | 0.00 | 0.00 | 0.00 | 33 | 1008.0 | |
| 20260506234321 | 57 | 0.0 | 0.0 | 0.00 | 0.00 | 0.00 | 33 | 1008.2 | |
| 20260506233816 | 57 | 0.0 | 0.0 | 0.00 | 0.00 | 0.00 | 33 | 1008.2 | |
| 20260506233313 | 57 | 0.0 | 0.0 | 0.00 | 0.00 | 0.00 | 33 | 1008.1 | |
| 20260506232709 | 57 | 0.0 | 0.0 | 0.00 | 0.00 | 0.00 | 33 | 1008.1 | |
| 20260506232106 | 57 | 0.0 | 0.0 | 0.00 | 0.00 | 0.00 | 34 | 1008.1 | |
| 20260506231503 | 57 | 225 | 3.0 | 4.0 | 0.00 | 0.00 | 0.00 | 35 | 1008.3 |
| 20260506231119 | 56 | 225 | 3.0 | 5.0 | 0.00 | 0.00 | 0.00 | 35 | 1008.2 |
| 20260506230555 | 56 | 0.0 | 0.0 | 0.00 | 0.00 | 0.00 | 34 | 1008.2 | |
| 20260506230051 | 57 | 0.0 | 0.0 | 0.00 | 0.00 | 0.00 | 34 | 1008.2 | |
| 20260506225546 | 57 | 0.0 | 0.0 | 0.00 | 0.00 | 0.00 | 34 | 1008.2 | |
| 20260506225101 | 57 | 0.0 | 0.0 | 0.00 | 0.00 | 0.00 | 34 | 1008.0 | |
| 20260506224537 | 57 | 0.0 | 0.0 | 0.00 | 0.00 | 0.00 | 34 | 1007.9 | |
| 20260506224032 | 57 | 180 | 1.0 | 2.0 | 0.00 | 0.00 | 0.00 | 34 | 1007.7 |
| 20260506223548 | 57 | 0.0 | 0.0 | 0.00 | 0.00 | 0.00 | 34 | 1007.9 | |
| 20260506223023 | 57 | 135 | 1.0 | 3.0 | 0.00 | 0.00 | 0.00 | 35 | 1007.9 |
| 20260506222519 | 57 | 0.0 | 0.0 | 0.00 | 0.00 | 0.00 | 35 | 1008.2 | |
| 20260506222015 | 57 | 0.0 | 0.0 | 0.00 | 0.00 | 0.00 | 35 | 1008.1 | |
| 20260506221412 | 57 | 0.0 | 0.0 | 0.00 | 0.00 | 0.00 | 35 | 1008.2 | |
| 20260506220808 | 57 | 0.0 | 0.0 | 0.00 | 0.00 | 0.00 | 35 | 1008.2 | |
| 20260506220205 | 58 | 0.0 | 0.0 | 0.00 | 0.00 | 0.00 | 34 | 1008.0 | |
| 20260506215701 | 58 | 0.0 | 0.0 | 0.00 | 0.00 | 0.00 | 34 | 1007.9 | |
| 20260506215155 | 58 | 0.0 | 0.0 | 0.00 | 0.00 | 0.00 | 34 | 1007.9 | |
| 20260506214650 | 58 | 0.0 | 0.0 | 0.00 | 0.00 | 0.00 | 34 | 1007.7 | |
| 20260506214146 | 58 | 0.0 | 0.0 | 0.00 | 0.00 | 0.00 | 34 | 1007.6 | |
| 20260506213639 | 58 | 0.0 | 0.0 | 0.00 | 0.00 | 0.00 | 34 | 1007.7 | |
| 20260506213134 | 58 | 0.0 | 0.0 | 0.00 | 0.00 | 0.00 | 34 | 1007.6 | |
| 20260506212650 | 58 | 0.0 | 0.0 | 0.00 | 0.00 | 0.00 | 34 | 1007.7 | |
| 20260506212125 | 58 | 0.0 | 0.0 | 0.00 | 0.00 | 0.00 | 34 | 1007.6 | |
| 20260506211640 | 57 | 0.0 | 0.0 | 0.00 | 0.00 | 0.00 | 34 | 1007.5 | |
| 20260506211115 | 57 | 0.0 | 0.0 | 0.00 | 0.00 | 0.00 | 34 | 1007.6 | |
| 20260506210612 | 57 | 0.0 | 0.0 | 0.00 | 0.00 | 0.00 | 34 | 1007.6 | |
| 20260506210009 | 57 | 0.0 | 0.0 | 0.00 | 0.00 | 0.00 | 34 | 1007.6 | |
| 20260506205406 | 57 | 0.0 | 0.0 | 0.00 | 0.00 | 0.00 | 33 | 1007.4 | |
| 20260506204821 | 57 | 0.0 | 0.0 | 0.00 | 0.00 | 0.00 | 32 | 1007.5 | |
| 20260506204418 | 58 | 0.0 | 0.0 | 0.00 | 0.00 | 0.00 | 32 | 1007.5 | |
| 20260506203853 | 58 | 0.0 | 0.0 | 0.00 | 0.00 | 0.00 | 32 | 1007.5 | |
| 20260506203349 | 58 | 0.0 | 0.0 | 0.00 | 0.00 | 0.00 | 32 | 1007.5 | |
| 20260506202844 | 59 | 0.0 | 0.0 | 0.00 | 0.00 | 0.00 | 31 | 1007.4 | |
| 20260506202339 | 59 | 0.0 | 0.0 | 0.00 | 0.00 | 0.00 | 31 | 1007.3 | |
| 20260506201955 | 59 | 0.0 | 0.0 | 0.00 | 0.00 | 0.00 | 31 | 1007.3 | |
| 20260506201350 | 60 | 180 | 2.0 | 3.0 | 0.00 | 0.00 | 0.00 | 31 | 1007.3 |
| 20260506200826 | 60 | 135 | 3.0 | 5.0 | 0.00 | 0.00 | 0.00 | 31 | 1007.3 |
| 20260506200340 | 60 | 225 | 3.0 | 5.0 | 0.00 | 0.00 | 0.00 | 31 | 1007.1 |
| 20260506195856 | 60 | 180 | 1.0 | 2.0 | 0.00 | 0.00 | 0.00 | 31 | 1007.3 |
| 20260506195312 | 60 | 180 | 2.0 | 4.0 | 0.00 | 0.00 | 0.00 | 31 | 1007.4 |
| 20260506194709 | 60 | 0.0 | 0.0 | 0.00 | 0.00 | 0.00 | 31 | 1007.3 | |
| 20260506194105 | 60 | 0.0 | 0.0 | 0.00 | 0.00 | 0.00 | 31 | 1007.3 | |
| 20260506193522 | 60 | 0.0 | 0.0 | 0.00 | 0.00 | 0.00 | 31 | 1007.2 | |
| 20260506193058 | 60 | 0.0 | 0.0 | 0.00 | 0.00 | 0.00 | 31 | 1007.2 | |
| 20260506192554 | 60 | 225 | 0.0 | 2.0 | 0.00 | 0.00 | 0.00 | 31 | 1007.1 |
| 20260506192050 | 60 | 180 | 0.0 | 3.0 | 0.00 | 0.00 | 0.00 | 31 | 1006.9 |
| 20260506191544 | 60 | 135 | 3.0 | 5.0 | 0.00 | 0.00 | 0.00 | 31 | 1006.9 |
| 20260506191041 | 60 | 225 | 3.0 | 3.0 | 0.00 | 0.00 | 0.00 | 30 | 1007.0 |
| 20260506190536 | 60 | 0.0 | 0.0 | 0.00 | 0.00 | 0.00 | 30 | 1006.9 | |
| 20260506190030 | 61 | 0.0 | 0.0 | 0.00 | 0.00 | 0.00 | 30 | 1006.8 | |
| 20260506185526 | 61 | 180 | 2.0 | 3.0 | 0.00 | 0.00 | 0.00 | 28 | 1006.8 |
| 20260506185021 | 61 | 202 | 3.0 | 3.0 | 0.00 | 0.00 | 0.00 | 26 | 1006.8 |
| 20260506184516 | 62 | 180 | 2.0 | 3.0 | 0.00 | 0.00 | 0.00 | 24 | 1006.9 |
| 20260506184033 | 62 | 180 | 3.0 | 5.0 | 0.00 | 0.00 | 0.00 | 24 | 1006.8 |
| 20260506183409 | 62 | 180 | 3.0 | 3.0 | 0.00 | 0.00 | 0.00 | 22 | 1006.8 |
| 20260506182806 | 63 | 180 | 2.0 | 4.0 | 0.00 | 0.00 | 0.00 | 20 | 1006.8 |
| 20260506182202 | 63 | 0.0 | 0.0 | 0.00 | 0.00 | 0.00 | 20 | 1006.7 | |
| 20260506181758 | 63 | 180 | 3.0 | 4.0 | 0.00 | 0.00 | 0.00 | 20 | 1006.4 |
| 20260506181254 | 64 | 225 | 4.0 | 6.0 | 0.00 | 0.00 | 0.00 | 20 | 1006.5 |
| 20260506180748 | 64 | 225 | 5.0 | 6.0 | 0.00 | 0.00 | 0.00 | 15 | 1006.5 |
| 20260506180243 | 64 | 225 | 6.0 | 8.0 | 0.00 | 0.00 | 0.00 | 15 | 1006.4 |
| 20260506175739 | 65 | 180 | 3.0 | 5.0 | 0.00 | 0.00 | 0.00 | 15 | 1006.4 |
| 20260506175235 | 65 | 225 | 6.0 | 9.0 | 0.00 | 0.00 | 0.00 | 15 | 1006.4 |
| 20260506174730 | 65 | 180 | 6.0 | 9.0 | 0.00 | 0.00 | 0.00 | 15 | 1006.4 |
| 20260506174225 | 65 | 180 | 5.0 | 8.0 | 0.00 | 0.00 | 0.00 | 15 | 1006.1 |
| 20260506173721 | 65 | 225 | 2.0 | 8.0 | 0.00 | 0.00 | 0.00 | 15 | 1006.3 |
| 20260506173216 | 66 | 202 | 6.0 | 7.0 | 0.00 | 0.00 | 0.00 | 15 | 1006.2 |
| 20260506172713 | 66 | 180 | 7.0 | 11.0 | 0.00 | 0.00 | 0.00 | 15 | 1006.3 |
| 20260506172109 | 66 | 180 | 5.0 | 7.0 | 0.00 | 0.00 | 0.00 | 15 | 1006.1 |
| 20260506171506 | 66 | 270 | 5.0 | 7.0 | 0.00 | 0.00 | 0.00 | 15 | 1006.1 |
| 20260506170902 | 66 | 180 | 3.0 | 5.0 | 0.00 | 0.00 | 0.00 | 15 | 1006.2 |
| 20260506170518 | 66 | 180 | 4.0 | 6.0 | 0.00 | 0.00 | 0.00 | 15 | 1006.3 |
| 20260506165953 | 67 | 180 | 5.0 | 6.0 | 0.00 | 0.00 | 0.00 | 15 | 1006.2 |
| 20260506165508 | 67 | 135 | 3.0 | 5.0 | 0.00 | 0.00 | 0.00 | 15 | 1006.2 |
| 20260506164944 | 67 | 180 | 3.0 | 6.0 | 0.00 | 0.00 | 0.00 | 15 | 1006.5 |
| 20260506164441 | 67 | 180 | 7.0 | 10.0 | 0.00 | 0.00 | 0.00 | 15 | 1006.4 |
| 20260506163935 | 67 | 202 | 0.0 | 1.0 | 0.00 | 0.00 | 0.00 | 15 | 1006.4 |
| 20260506163429 | 67 | 180 | 6.0 | 9.0 | 0.00 | 0.00 | 0.00 | 15 | 1006.5 |
| 20260506162925 | 67 | 225 | 3.0 | 4.0 | 0.00 | 0.00 | 0.00 | 15 | 1006.7 |
| 20260506162440 | 67 | 270 | 3.0 | 6.0 | 0.00 | 0.00 | 0.00 | 15 | 1006.7 |
| 20260506161916 | 68 | 202 | 4.0 | 9.0 | 0.00 | 0.00 | 0.00 | 19 | 1006.9 |
| 20260506161433 | 68 | 180 | 4.0 | 6.0 | 0.00 | 0.00 | 0.00 | 19 | 1006.8 |
| 20260506160809 | 68 | 180 | 3.0 | 6.0 | 0.00 | 0.00 | 0.00 | 19 | 1006.7 |
| 20260506160207 | 68 | 180 | 3.0 | 7.0 | 0.00 | 0.00 | 0.00 | 19 | 1006.6 |
| 20260506155605 | 69 | 180 | 5.0 | 9.0 | 0.00 | 0.00 | 0.00 | 19 | 1006.5 |
| 20260506155058 | 69 | 202 | 9.0 | 10.0 | 0.00 | 0.00 | 0.00 | 19 | 1006.5 |
| 20260506154553 | 71 | 270 | 6.0 | 8.0 | 0.00 | 0.00 | 0.00 | 19 | 1006.6 |
| 20260506154049 | 71 | 180 | 7.0 | 9.0 | 0.00 | 0.00 | 0.00 | 19 | 1006.7 |
| 20260506153605 | 71 | 135 | 7.0 | 9.0 | 0.00 | 0.00 | 0.00 | 19 | 1006.6 |
| 20260506153038 | 70 | 180 | 4.0 | 6.0 | 0.00 | 0.00 | 0.00 | 19 | 1006.9 |
| 20260506152534 | 69 | 225 | 6.0 | 8.0 | 0.00 | 0.00 | 0.00 | 19 | 1006.7 |
| 20260506152035 | 68 | 212 | 2.0 | 6.0 | 0.00 | 0.00 | 0.00 | 19 | 1006.6 |
| 20260506151545 | 68 | 225 | 6.0 | 8.0 | 0.00 | 0.00 | 0.00 | 19 | 1006.4 |
| 20260506151021 | 68 | 180 | 8.0 | 11.0 | 0.00 | 0.00 | 0.00 | 19 | 1006.6 |
| 20260506150516 | 69 | 180 | 2.0 | 6.0 | 0.00 | 0.00 | 0.00 | 19 | 1006.6 |
| 20260506150012 | 69 | 225 | 7.0 | 9.0 | 0.00 | 0.00 | 0.00 | 19 | 1006.6 |
| 20260506145410 | 69 | 225 | 4.0 | 7.0 | 0.00 | 0.00 | 0.00 | 19 | 1006.7 |
| 20260506144806 | 69 | 180 | 6.0 | 9.0 | 0.00 | 0.00 | 0.00 | 19 | 1006.5 |
| 20260506144202 | 70 | 270 | 4.0 | 6.0 | 0.00 | 0.00 | 0.00 | 19 | 1006.9 |
| 20260506143657 | 70 | 225 | 6.0 | 9.0 | 0.00 | 0.00 | 0.00 | 19 | 1006.7 |
| 20260506143153 | 71 | 0.0 | 0.0 | 0.00 | 0.00 | 0.00 | 19 | 1006.8 | |
| 20260506142648 | 70 | 225 | 6.0 | 9.0 | 0.00 | 0.00 | 0.00 | 19 | 1007.1 |
| 20260506142204 | 70 | 180 | 4.0 | 6.0 | 0.00 | 0.00 | 0.00 | 19 | 1006.8 |
| 20260506141644 | 70 | 180 | 11.0 | 13.0 | 0.00 | 0.00 | 0.00 | 19 | 1007.1 |
| 20260506141134 | 70 | 0.0 | 1.0 | 0.00 | 0.00 | 0.00 | 19 | 1006.9 | |
| 20260506140630 | 71 | 225 | 6.0 | 8.0 | 0.00 | 0.00 | 0.00 | 19 | 1006.9 |
| 20260506140125 | 71 | 225 | 6.0 | 8.0 | 0.00 | 0.00 | 0.00 | 19 | 1006.8 |
| 20260506135620 | 71 | 225 | 3.0 | 7.0 | 0.00 | 0.00 | 0.00 | 19 | 1006.9 |
| 20260506135116 | 70 | 180 | 2.0 | 3.0 | 0.00 | 0.00 | 0.00 | 19 | 1006.9 |
| 20260506134613 | 70 | 180 | 9.0 | 15.0 | 0.00 | 0.00 | 0.00 | 19 | 1006.8 |
| 20260506134010 | 71 | 292 | 9.0 | 12.0 | 0.00 | 0.00 | 0.00 | 19 | 1007.1 |
| 20260506133406 | 69 | 225 | 9.0 | 11.0 | 0.00 | 0.00 | 0.00 | 19 | 1007.1 |
| 20260506132823 | 70 | 270 | 12.0 | 17.0 | 0.00 | 0.00 | 0.00 | 19 | 1007.3 |
| 20260506132359 | 70 | 270 | 9.0 | 12.0 | 0.00 | 0.00 | 0.00 | 19 | 1007.3 |
| 20260506131855 | 70 | 225 | 6.0 | 8.0 | 0.00 | 0.00 | 0.00 | 19 | 1007.4 |
| 20260506131350 | 70 | 180 | 3.0 | 5.0 | 0.00 | 0.00 | 0.00 | 19 | 1007.3 |
| 20260506130845 | 70 | 270 | 9.0 | 12.0 | 0.00 | 0.00 | 0.00 | 19 | 1007.5 |
| 20260506130343 | 71 | 225 | 12.0 | 18.0 | 0.00 | 0.00 | 0.00 | 19 | 1007.2 |
| 20260506125836 | 71 | 225 | 9.0 | 15.0 | 0.00 | 0.00 | 0.00 | 19 | 1007.3 |
| 20260506125331 | 70 | 225 | 10.0 | 12.0 | 0.00 | 0.00 | 0.00 | 19 | 1007.4 |
| 20260506124827 | 70 | 180 | 9.0 | 12.0 | 0.00 | 0.00 | 0.00 | 19 | 1007.3 |
| 20260506124343 | 70 | 180 | 12.0 | 13.0 | 0.00 | 0.00 | 0.00 | 19 | 1007.3 |
| 20260506123817 | 71 | 225 | 6.0 | 9.0 | 0.00 | 0.00 | 0.00 | 19 | 1007.6 |
| 20260506123334 | 72 | 180 | 8.0 | 10.0 | 0.00 | 0.00 | 0.00 | 19 | 1007.4 |
| 20260506122710 | 74 | 180 | 7.0 | 10.0 | 0.00 | 0.00 | 0.00 | 19 | 1007.3 |
| 20260506122107 | 73 | 225 | 9.0 | 10.0 | 0.00 | 0.00 | 0.00 | 19 | 1007.4 |
| 20260506121503 | 74 | 247 | 6.0 | 9.0 | 0.00 | 0.00 | 0.00 | 19 | 1007.4 |
| 20260506121042 | 73 | 270 | 7.0 | 12.0 | 0.00 | 0.00 | 0.00 | 19 | 1007.5 |
| 20260506120455 | 75 | 225 | 5.0 | 8.0 | 0.00 | 0.00 | 0.00 | 19 | 1007.3 |
| 20260506115950 | 75 | 225 | 6.0 | 10.0 | 0.00 | 0.00 | 0.00 | 19 | 1007.5 |
| 20260506115446 | 76 | 180 | 6.0 | 10.0 | 0.00 | 0.00 | 0.00 | 19 | 1007.3 |
| 20260506114941 | 75 | 225 | 3.0 | 6.0 | 0.00 | 0.00 | 0.00 | 19 | 1007.6 |
| 20260506114617 | 75 | 270 | 7.0 | 9.0 | 0.00 | 0.00 | 0.00 | 19 | 1007.7 |
| 20260506113934 | 75 | 315 | 9.0 | 10.0 | 0.00 | 0.00 | 0.00 | 19 | 1007.9 |
| 20260506113427 | 74 | 225 | 7.0 | 10.0 | 0.00 | 0.00 | 0.00 | 19 | 1007.9 |
| 20260506112923 | 73 | 225 | 9.0 | 12.0 | 0.00 | 0.00 | 0.00 | 19 | 1007.6 |
| 20260506112418 | 73 | 180 | 9.0 | 12.0 | 0.00 | 0.00 | 0.00 | 19 | 1007.9 |
| 20260506111918 | 72 | 270 | 10.0 | 13.0 | 0.00 | 0.00 | 0.00 | 19 | 1007.9 |
| 20260506111312 | 71 | 180 | 6.0 | 9.0 | 0.00 | 0.00 | 0.00 | 19 | 1007.9 |
| 20260506110727 | 71 | 270 | 9.0 | 11.0 | 0.00 | 0.00 | 0.00 | 19 | 1007.9 |
| 20260506110105 | 71 | 270 | 9.0 | 12.0 | 0.00 | 0.00 | 0.00 | 19 | 1007.9 |
| 20260506105559 | 71 | 225 | 4.0 | 6.0 | 0.00 | 0.00 | 0.00 | 19 | 1007.9 |
| 20260506105115 | 71 | 180 | 8.0 | 10.0 | 0.00 | 0.00 | 0.00 | 19 | 1007.6 |
| 20260506104610 | 72 | 225 | 10.0 | 15.0 | 0.00 | 0.00 | 0.00 | 19 | 1008.0 |
| 20260506104106 | 73 | 270 | 7.0 | 11.0 | 0.00 | 0.00 | 0.00 | 19 | 1007.7 |
| 20260506103541 | 74 | 270 | 6.0 | 9.0 | 0.00 | 0.00 | 0.00 | 19 | 1007.7 |
| 20260506103037 | 75 | 315 | 9.0 | 12.0 | 0.00 | 0.00 | 0.00 | 19 | 1007.5 |
| 20260506102532 | 76 | 225 | 9.0 | 12.0 | 0.00 | 0.00 | 0.00 | 19 | 1007.7 |
| 20260506102029 | 76 | 180 | 8.0 | 11.0 | 0.00 | 0.00 | 0.00 | 19 | 1007.6 |
| 20260506101523 | 76 | 180 | 14.0 | 15.0 | 0.00 | 0.00 | 0.00 | 19 | 1007.4 |
| 20260506101019 | 76 | 180 | 7.0 | 12.0 | 0.00 | 0.00 | 0.00 | 19 | 1007.4 |
| 20260506100515 | 76 | 180 | 7.0 | 10.0 | 0.00 | 0.00 | 0.00 | 19 | 1007.6 |
| 20260506095910 | 76 | 225 | 8.0 | 14.0 | 0.00 | 0.00 | 0.00 | 19 | 1007.6 |
| 20260506095307 | 75 | 180 | 6.0 | 9.0 | 0.00 | 0.00 | 0.00 | 19 | 1007.7 |
| 20260506094723 | 75 | 180 | 12.0 | 13.0 | 0.00 | 0.00 | 0.00 | 19 | 1007.6 |
| 20260506094159 | 75 | 180 | 3.0 | 6.0 | 0.00 | 0.00 | 0.00 | 19 | 1007.6 |
| 20260506093655 | 75 | 225 | 3.0 | 5.0 | 0.00 | 0.00 | 0.00 | 19 | 1007.7 |
| 20260506093150 | 75 | 202 | 6.0 | 8.0 | 0.00 | 0.00 | 0.00 | 19 | 1007.5 |
| 20260506092645 | 74 | 225 | 6.0 | 9.0 | 0.00 | 0.00 | 0.00 | 19 | 1007.7 |
| 20260506092141 | 74 | 180 | 6.0 | 9.0 | 0.00 | 0.00 | 0.00 | 19 | 1007.7 |
| 20260506091657 | 74 | 180 | 8.0 | 9.0 | 0.00 | 0.00 | 0.00 | 19 | 1007.6 |
| 20260506091132 | 75 | 180 | 9.0 | 12.0 | 0.00 | 0.00 | 0.00 | 19 | 1007.7 |
| 20260506090627 | 74 | 0.0 | 0.0 | 0.00 | 0.00 | 0.00 | 19 | 1007.7 | |
| 20260506090122 | 74 | 180 | 9.0 | 15.0 | 0.00 | 0.00 | 0.00 | 19 | 1008.0 |
| 20260506085618 | 73 | 225 | 6.0 | 8.0 | 0.00 | 0.00 | 0.00 | 19 | 1007.7 |
| 20260506085114 | 73 | 180 | 10.0 | 14.0 | 0.00 | 0.00 | 0.00 | 19 | 1007.9 |
| 20260506084510 | 73 | 225 | 7.0 | 9.0 | 0.00 | 0.00 | 0.00 | 19 | 1007.9 |
| 20260506083907 | 73 | 225 | 6.0 | 9.0 | 0.00 | 0.00 | 0.00 | 19 | 1007.7 |
| 20260506083303 | 73 | 247 | 6.0 | 8.0 | 0.00 | 0.00 | 0.00 | 19 | 1007.9 |
| 20260506082900 | 73 | 270 | 7.0 | 9.0 | 0.00 | 0.00 | 0.00 | 19 | 1007.9 |
| 20260506082355 | 73 | 180 | 11.0 | 12.0 | 0.00 | 0.00 | 0.00 | 19 | 1007.9 |
| 20260506081851 | 72 | 270 | 3.0 | 6.0 | 0.00 | 0.00 | 0.00 | 19 | 1007.9 |
| 20260506081348 | 72 | 270 | 9.0 | 12.0 | 0.00 | 0.00 | 0.00 | 19 | 1008.0 |
| 20260506080842 | 72 | 202 | 6.0 | 9.0 | 0.00 | 0.00 | 0.00 | 19 | 1008.0 |
| 20260506080337 | 71 | 225 | 6.0 | 9.0 | 0.00 | 0.00 | 0.00 | 19 | 1008.0 |
| 20260506073313 | 69 | 180 | 6.0 | 9.0 | 0.00 | 0.00 | 0.00 | 19 | 1008.0 |
| 20260506072709 | 69 | 180 | 9.0 | 12.0 | 0.00 | 0.00 | 0.00 | 19 | 1007.9 |
| 20260506072125 | 69 | 180 | 7.0 | 12.0 | 0.00 | 0.00 | 0.00 | 19 | 1007.9 |
| 20260506071501 | 68 | 180 | 8.0 | 12.0 | 0.00 | 0.00 | 0.00 | 19 | 1007.6 |
| 20260506071058 | 68 | 270 | 8.0 | 11.0 | 0.00 | 0.00 | 0.00 | 19 | 1008.0 |
| 20260506070553 | 68 | 225 | 6.0 | 10.0 | 0.00 | 0.00 | 0.00 | 19 | 1008.0 |
| 20260506062041 | 65 | 315 | 1.0 | 3.0 | 0.00 | 0.00 | 0.00 | 20 | 1008.0 |